OSCAR 7 1 07530U 74089B 25352.65363404 -.00000034 00000-0 77399-4 0 9998 2 07530 101.9964 358.9835 0012379 115.4656 6.5203 12.53694354337896 OSCAR 11 (UOSAT 2) 1 14781U 84021B 25352.50101061 .00001265 00000-0 13634-3 0 9991 2 14781 97.7818 315.4401 0009188 66.1899 294.0281 14.90160511230218 OSCAR 19 (LUSAT) 1 20442U 90005G 25352.54673625 .00000117 00000-0 58612-4 0 9996 2 20442 98.8957 4.2769 0011894 21.0310 339.1361 14.34047038876504 EYESAT A 1 22825U 93061C 25352.59278863 .00000100 00000-0 55381-4 0 9990 2 22825 98.7139 54.8739 0007301 269.9829 90.0517 14.30878819681174 ITAMSAT 1 22826U 93061D 25352.41595206 .00000121 00000-0 62553-4 0 9997 2 22826 98.7088 54.5964 0007886 252.1545 107.8778 14.31299803681450 RADIO ROSTO 1 23439U 94085A 25352.63369280 .00000040 00000-0 23420-2 0 9998 2 23439 64.8158 235.2190 0149905 37.4028 323.7219 11.27583202275540 JAS 2 1 24278U 96046B 25352.61402753 -.00000035 00000-0 13961-5 0 9997 2 24278 98.5459 220.9609 0349413 204.7150 153.6895 13.53262934448748 TECHSAT 1B 1 25397U 98043D 25352.46690113 .00000069 00000-0 49910-4 0 9999 2 25397 98.9925 335.8113 0001896 48.3559 311.7781 14.24378705425608 ISS (ZARYA) 1 25544U 98067A 25352.53865931 .00007413 00000-0 13939-3 0 9990 2 25544 51.6314 113.7624 0003172 267.0099 93.0526 15.49652631543753 PCSAT 1 26931U 01043C 25352.39407045 .00000134 00000-0 81201-4 0 9992 2 26931 67.0515 351.8559 0007418 269.6718 90.3534 14.31857941264562 SAUDISAT 1C 1 27607U 02058C 25352.33731994 .00001674 00000-0 21754-3 0 9993 2 27607 64.5543 328.2974 0072485 295.5515 63.8109 14.82414230237642 CUTE-1 1 27844U 03031E 25352.49146233 .00000314 00000-0 15509-3 0 9992 2 27844 98.6762 358.3203 0009483 356.9402 3.1718 14.24184266165956 CUBESAT XI 4 1 27848U 03031J 25352.46077302 .00000265 00000-0 13573-3 0 9997 2 27848 98.6790 358.1474 0009719 14.9333 345.2131 14.23491533165669 MOZHAYETS 4 1 27939U 03042A 25352.62067221 .00001312 00000-0 21242-3 0 9993 2 27939 98.3358 166.9764 0012254 118.3665 306.2828 14.72987649188969 CUBESAT XI 5 1 28895U 05043F 25352.35586525 .00001431 00000-0 23645-3 0 9992 2 28895 98.2728 139.5287 0015229 61.5464 298.7275 14.71920624 75143 CUTE-1.7+APD 2 1 32785U 08021C 25351.68477250 .00005656 00000-0 38073-3 0 9997 2 32785 97.8081 324.8433 0007829 290.5969 69.4418 15.07103756957832 SEEDS 1 32791U 08021J 25352.41396204 .00015347 00000-0 60926-3 0 9995 2 32791 97.7441 337.7552 0002004 178.5065 181.6178 15.25441691959661 YUBELEINY 1 32953U 08025A 25352.58551198 .00000007 00000-0 -16944-4 0 9992 2 32953 82.5020 107.7870 0018808 348.1236 11.9398 12.43172084797256 KKS-1 (KISEKI) 1 33499U 09002H 25352.47932400 .00001355 00000-0 17583-3 0 9996 2 33499 98.1182 267.1593 0008499 146.8954 213.2792 14.82453506909416 SWISSCUBE 1 35932U 09051B 25352.65682430 .00001019 00000-0 21310-3 0 9999 2 35932 98.4147 252.3435 0008002 58.5463 301.6518 14.61973953862774 BEESAT 1 35933U 09051C 25352.16562787 .00000890 00000-0 19028-3 0 9997 2 35933 98.4077 251.8445 0006540 72.3751 287.8163 14.61290952862740 ITUPSAT 1 1 35935U 09051E 25352.20538780 .00000833 00000-0 18356-3 0 9990 2 35935 98.4167 251.2586 0008752 80.5403 279.6786 14.60045313862326 XIWANG-1 (HOPE-1) 1 36122U 09072B 25352.59359990 .00000183 00000-0 59477-3 0 9995 2 36122 100.3775 304.5236 0007000 288.8269 71.2084 13.16434220769248 TISAT 1 1 36799U 10035E 25352.55692180 .00015925 00000-0 66653-3 0 9997 2 36799 98.0607 279.3745 0003931 121.0899 239.0723 15.23655772840123 JUGNU 1 37839U 11058B 25352.34395981 .00000432 00000-0 86058-4 0 9994 2 37839 19.9624 327.0603 0018422 238.6956 272.3604 14.13698975733404 SRMSAT 1 37841U 11058D 25352.52766590 .00000395 00000-0 71010-4 0 9995 2 37841 19.9721 72.9206 0011898 17.1878 11.9497 14.11513423732265 HORYU 2 1 38340U 12025D 25352.57176693 .00003137 00000-0 33532-3 0 9992 2 38340 98.1959 113.5974 0009214 57.2389 302.9714 14.89515509721824 STRAND 1 1 39090U 13009E 25352.44883364 .00000306 00000-0 11761-3 0 9999 2 39090 98.3821 172.1940 0009570 55.5383 304.6706 14.37009931671106 CUBEBUG 1 1 39153U 13018D 25352.38095983 .00003218 00000-0 29426-3 0 9996 2 39153 98.1427 139.7258 0012690 31.5387 328.6590 14.95710949684026 ZACUBE 1 39417U 13066B 25351.39749824 .00003280 00000-0 27002-3 0 9999 2 39417 97.8056 307.9496 0042001 132.1904 228.2897 14.99124350653477 TRITON 1 1 39427U 13066M 25352.58857128 .00002284 00000-0 28355-3 0 9994 2 39427 97.8323 261.5659 0093468 102.2354 258.9345 14.80518595647357 GOMX 1 1 39430U 13066Q 25352.62484691 .00002182 00000-0 33864-3 0 9992 2 39430 97.6586 199.3821 0129295 297.5772 61.2350 14.68613565643401 HUMSAT D 1 39433U 13066T 25352.54926768 .00088598 00000-0 11322-2 0 9991 2 39433 97.4999 354.4388 0009224 121.5135 238.7023 15.58902246658692 CUBEBUG 2 1 39440U 13066AA 25351.56788106 .00003439 00000-0 33426-3 0 9993 2 39440 97.8708 295.2332 0058016 269.4523 90.0047 14.92015584649893 FUNCUBE 1 1 39444U 13066AE 25352.43550844 .00007183 00000-0 48724-3 0 9997 2 39444 97.8073 315.7836 0041042 97.2072 263.3823 15.06049346652425 UWE-3 1 39446U 13066AG 25352.37627641 .00002886 00000-0 26205-3 0 9997 2 39446 97.8484 302.7302 0049887 200.4615 159.4608 14.95150060650543 UNISAT 6 1 40012U 14033C 25352.39947485 .00002625 00000-0 29506-3 0 9994 2 40012 97.7616 143.7274 0045255 305.1305 54.5674 14.86838772619282 DUCHIFAT 1 1 40021U 14033M 25352.55525931 .00031704 00000-0 76738-3 0 9999 2 40021 98.0779 24.9788 0006965 16.3390 343.8078 15.41038104627741 QB50P1 1 40025U 14033R 25352.50000517 .00007516 00000-0 41091-3 0 9994 2 40025 98.0961 346.4611 0010983 117.5506 242.6841 15.14558452625647 OBJECT G 1 40905U 15049G 25352.59175757 .00021789 00000-0 34211-3 0 9991 2 40905 97.4842 22.3421 0007365 149.3247 210.8438 15.53652818568299 LILACSAT 2 1 40908U 15049K 25352.63072008 .00013243 00000-0 28340-3 0 9996 2 40908 97.4905 18.1948 0007865 175.0049 185.1279 15.44897414567817 LQSAT 1 40958U 15057A 25352.61792248 .00000308 00000-0 50986-4 0 9993 2 40958 97.6599 350.0707 0018007 134.8215 225.4463 14.76456694548662 CHUBUSAT 2 1 41338U 16012B 25352.60152780 .00005166 00000-0 23916-3 0 9997 2 41338 30.9992 64.4901 0009077 37.3173 322.8097 15.18458218540928 CHUBUSAT 3 1 41339U 16012C 25352.60451601 .00004840 00000-0 23654-3 0 9999 2 41339 31.0057 70.0905 0009293 30.4642 329.6537 15.16549896540740 PRATHAM 1 41783U 16059A 25352.49932294 .00000704 00000-0 13331-3 0 9998 2 41783 97.8268 352.4034 0032838 74.8217 285.6616 14.66842976493024 ALSAT 1N 1 41789U 16059G 25352.55873271 .00000958 00000-0 17093-3 0 9990 2 41789 97.8017 359.0094 0027293 47.3578 312.9923 14.68883111493488